Year,Month,Day,Hour,Minute,Value (Times are PST for insolation in W/m^2)
2006,09,13,00,00,0.00
2006,09,13,00,01,0.00
2006,09,13,00,02,0.00
2006,09,13,00,03,0.00
2006,09,13,00,04,0.00
2006,09,13,00,05,0.00
2006,09,13,00,06,0.00
2006,09,13,00,07,0.00
2006,09,13,00,08,0.00
2006,09,13,00,09,0.00
2006,09,13,00,10,0.00
2006,09,13,00,11,0.00
2006,09,13,00,12,0.00
2006,09,13,00,13,0.00
2006,09,13,00,14,0.00
2006,09,13,00,15,0.00
2006,09,13,00,16,0.00
2006,09,13,00,17,0.00
2006,09,13,00,18,0.00
2006,09,13,00,19,0.00
2006,09,13,00,20,0.00
2006,09,13,00,21,0.00
2006,09,13,00,22,0.00
2006,09,13,00,23,0.00
2006,09,13,00,24,0.00
2006,09,13,00,25,0.00
2006,09,13,00,26,0.00
2006,09,13,00,27,0.00
2006,09,13,00,28,0.00
2006,09,13,00,29,0.00
2006,09,13,00,30,0.00
2006,09,13,00,31,0.00
2006,09,13,00,32,0.00
2006,09,13,00,33,0.00
2006,09,13,00,34,0.00
2006,09,13,00,35,0.00
2006,09,13,00,36,0.00
2006,09,13,00,37,0.00
2006,09,13,00,38,0.00
2006,09,13,00,39,0.00
2006,09,13,00,40,0.00
2006,09,13,00,41,0.00
2006,09,13,00,42,0.00
2006,09,13,00,43,0.00
2006,09,13,00,44,0.00
2006,09,13,00,45,0.00
2006,09,13,00,46,0.00
2006,09,13,00,47,0.00
2006,09,13,00,48,0.00
2006,09,13,00,49,0.00
2006,09,13,00,50,0.00
2006,09,13,00,51,0.00
2006,09,13,00,52,0.00
2006,09,13,00,53,0.00
2006,09,13,00,54,0.00
2006,09,13,00,55,0.00
2006,09,13,00,56,0.00
2006,09,13,00,57,0.00
2006,09,13,00,58,0.00
2006,09,13,00,59,0.00
2006,09,13,01,00,0.00
2006,09,13,01,01,0.00
2006,09,13,01,02,0.00
2006,09,13,01,03,0.00
2006,09,13,01,04,0.00
2006,09,13,01,05,0.00
2006,09,13,01,06,0.00
2006,09,13,01,07,0.00
2006,09,13,01,08,0.00
2006,09,13,01,09,0.00
2006,09,13,01,10,0.00
2006,09,13,01,11,0.00
2006,09,13,01,12,0.00
2006,09,13,01,13,0.00
2006,09,13,01,14,0.00
2006,09,13,01,15,0.00
2006,09,13,01,16,0.00
2006,09,13,01,17,0.00
2006,09,13,01,18,0.00
2006,09,13,01,19,0.00
2006,09,13,01,20,0.00
2006,09,13,01,21,0.00
2006,09,13,01,22,0.00
2006,09,13,01,23,0.00
2006,09,13,01,24,0.00
2006,09,13,01,25,0.00
2006,09,13,01,26,0.00
2006,09,13,01,27,0.00
2006,09,13,01,28,0.00
2006,09,13,01,29,0.00
2006,09,13,01,30,0.00
2006,09,13,01,31,0.00
2006,09,13,01,32,0.00
2006,09,13,01,33,0.00
2006,09,13,01,34,0.00
2006,09,13,01,35,0.00
2006,09,13,01,36,0.00
2006,09,13,01,37,0.00
2006,09,13,01,38,0.00
2006,09,13,01,39,0.00
2006,09,13,01,40,0.00
2006,09,13,01,41,0.00
2006,09,13,01,42,0.00
2006,09,13,01,43,0.00
2006,09,13,01,44,0.00
2006,09,13,01,45,0.00
2006,09,13,01,46,0.00
2006,09,13,01,47,0.00
2006,09,13,01,48,0.00
2006,09,13,01,49,0.00
2006,09,13,01,50,0.00
2006,09,13,01,51,0.00
2006,09,13,01,52,0.00
2006,09,13,01,53,0.00
2006,09,13,01,54,0.00
2006,09,13,01,55,0.00
2006,09,13,01,56,0.00
2006,09,13,01,57,0.00
2006,09,13,01,58,0.00
2006,09,13,01,59,0.00
2006,09,13,02,00,0.00
2006,09,13,02,01,0.00
2006,09,13,02,02,0.00
2006,09,13,02,03,0.00
2006,09,13,02,04,0.00
2006,09,13,02,05,0.00
2006,09,13,02,06,0.00
2006,09,13,02,07,0.00
2006,09,13,02,08,0.00
2006,09,13,02,09,0.00
2006,09,13,02,10,0.00
2006,09,13,02,11,0.00
2006,09,13,02,12,0.00
2006,09,13,02,13,0.00
2006,09,13,02,14,0.00
2006,09,13,02,15,0.00
2006,09,13,02,16,0.00
2006,09,13,02,17,0.00
2006,09,13,02,18,0.00
2006,09,13,02,19,0.00
2006,09,13,02,20,0.00
2006,09,13,02,21,0.00
2006,09,13,02,22,0.00
2006,09,13,02,23,0.00
2006,09,13,02,24,0.00
2006,09,13,02,25,0.00
2006,09,13,02,26,0.00
2006,09,13,02,27,0.00
2006,09,13,02,28,0.00
2006,09,13,02,29,0.00
2006,09,13,02,30,0.00
2006,09,13,02,31,0.00
2006,09,13,02,32,0.00
2006,09,13,02,33,0.00
2006,09,13,02,34,0.00
2006,09,13,02,35,0.00
2006,09,13,02,36,0.00
2006,09,13,02,37,0.00
2006,09,13,02,38,0.00
2006,09,13,02,39,0.00
2006,09,13,02,40,0.00
2006,09,13,02,41,0.00
2006,09,13,02,42,0.00
2006,09,13,02,43,0.00
2006,09,13,02,44,0.00
2006,09,13,02,45,0.00
2006,09,13,02,46,0.00
2006,09,13,02,47,0.00
2006,09,13,02,48,0.00
2006,09,13,02,49,0.00
2006,09,13,02,50,0.00
2006,09,13,02,51,0.00
2006,09,13,02,52,0.00
2006,09,13,02,53,0.00
2006,09,13,02,54,0.00
2006,09,13,02,55,0.00
2006,09,13,02,56,0.00
2006,09,13,02,57,0.00
2006,09,13,02,58,0.00
2006,09,13,02,59,0.00
2006,09,13,03,00,0.00
2006,09,13,03,01,0.00
2006,09,13,03,02,0.00
2006,09,13,03,03,0.00
2006,09,13,03,04,0.00
2006,09,13,03,05,0.00
2006,09,13,03,06,0.00
2006,09,13,03,07,0.00
2006,09,13,03,08,0.00
2006,09,13,03,09,0.00
2006,09,13,03,10,0.00
2006,09,13,03,11,0.00
2006,09,13,03,12,0.00
2006,09,13,03,13,0.00
2006,09,13,03,14,0.00
2006,09,13,03,15,0.00
2006,09,13,03,16,0.00
2006,09,13,03,17,0.00
2006,09,13,03,18,0.00
2006,09,13,03,19,0.00
2006,09,13,03,20,0.00
2006,09,13,03,21,0.00
2006,09,13,03,22,0.00
2006,09,13,03,23,0.00
2006,09,13,03,24,0.00
2006,09,13,03,25,0.00
2006,09,13,03,26,0.00
2006,09,13,03,27,0.00
2006,09,13,03,28,0.00
2006,09,13,03,29,0.00
2006,09,13,03,30,0.00
2006,09,13,03,31,0.00
2006,09,13,03,32,0.00
2006,09,13,03,33,0.00
2006,09,13,03,34,0.00
2006,09,13,03,35,0.00
2006,09,13,03,36,0.00
2006,09,13,03,37,0.00
2006,09,13,03,38,0.00
2006,09,13,03,39,0.00
2006,09,13,03,40,0.00
2006,09,13,03,41,0.00
2006,09,13,03,42,0.00
2006,09,13,03,43,0.00
2006,09,13,03,44,0.00
2006,09,13,03,45,0.00
2006,09,13,03,46,0.00
2006,09,13,03,47,0.00
2006,09,13,03,48,0.00
2006,09,13,03,49,0.00
2006,09,13,03,50,0.00
2006,09,13,03,51,0.00
2006,09,13,03,52,0.00
2006,09,13,03,53,0.00
2006,09,13,03,54,0.00
2006,09,13,03,55,0.00
2006,09,13,03,56,0.00
2006,09,13,03,57,0.00
2006,09,13,03,58,0.00
2006,09,13,03,59,0.00
2006,09,13,04,00,0.00
2006,09,13,04,01,0.00
2006,09,13,04,02,0.00
2006,09,13,04,03,0.00
2006,09,13,04,04,0.00
2006,09,13,04,05,0.00
2006,09,13,04,06,0.00
2006,09,13,04,07,0.00
2006,09,13,04,08,0.00
2006,09,13,04,09,0.00
2006,09,13,04,10,0.00
2006,09,13,04,11,0.00
2006,09,13,04,12,0.00
2006,09,13,04,13,0.00
2006,09,13,04,14,0.00
2006,09,13,04,15,0.00
2006,09,13,04,16,0.00
2006,09,13,04,17,0.00
2006,09,13,04,18,0.00
2006,09,13,04,19,0.00
2006,09,13,04,20,0.00
2006,09,13,04,21,0.00
2006,09,13,04,22,0.00
2006,09,13,04,23,0.00
2006,09,13,04,24,0.00
2006,09,13,04,25,0.00
2006,09,13,04,26,0.00
2006,09,13,04,27,0.00
2006,09,13,04,28,0.00
2006,09,13,04,29,0.00
2006,09,13,04,30,0.00
2006,09,13,04,31,0.00
2006,09,13,04,32,0.00
2006,09,13,04,33,0.00
2006,09,13,04,34,0.00
2006,09,13,04,35,0.00
2006,09,13,04,36,0.00
2006,09,13,04,37,0.00
2006,09,13,04,38,0.00
2006,09,13,04,39,0.00
2006,09,13,04,40,0.00
2006,09,13,04,41,0.00
2006,09,13,04,42,0.00
2006,09,13,04,43,0.00
2006,09,13,04,44,0.00
2006,09,13,04,45,0.00
2006,09,13,04,46,0.00
2006,09,13,04,47,0.00
2006,09,13,04,48,0.00
2006,09,13,04,49,0.00
2006,09,13,04,50,0.00
2006,09,13,04,51,0.00
2006,09,13,04,52,0.00
2006,09,13,04,53,0.00
2006,09,13,04,54,0.00
2006,09,13,04,55,0.00
2006,09,13,04,56,0.00
2006,09,13,04,57,0.00
2006,09,13,04,58,0.00
2006,09,13,04,59,0.00
2006,09,13,05,00,0.00
2006,09,13,05,01,0.00
2006,09,13,05,02,0.00
2006,09,13,05,03,0.00
2006,09,13,05,04,0.00
2006,09,13,05,05,0.00
2006,09,13,05,06,0.00
2006,09,13,05,07,0.00
2006,09,13,05,08,0.00
2006,09,13,05,09,0.00
2006,09,13,05,10,0.00
2006,09,13,05,11,0.00
2006,09,13,05,12,0.00
2006,09,13,05,13,0.00
2006,09,13,05,14,0.00
2006,09,13,05,15,0.00
2006,09,13,05,16,0.00
2006,09,13,05,17,0.00
2006,09,13,05,18,0.00
2006,09,13,05,19,0.00
2006,09,13,05,20,0.00
2006,09,13,05,21,0.00
2006,09,13,05,22,0.00
2006,09,13,05,23,0.00
2006,09,13,05,24,0.00
2006,09,13,05,25,0.00
2006,09,13,05,26,0.00
2006,09,13,05,27,0.00
2006,09,13,05,28,0.00
2006,09,13,05,29,0.00
2006,09,13,05,30,0.00
2006,09,13,05,31,0.00
2006,09,13,05,32,0.00
2006,09,13,05,33,0.00
2006,09,13,05,34,0.00
2006,09,13,05,35,0.00
2006,09,13,05,36,0.00
2006,09,13,05,37,0.00
2006,09,13,05,38,0.00
2006,09,13,05,39,0.00
2006,09,13,05,40,0.00
2006,09,13,05,41,0.00
2006,09,13,05,42,0.00
2006,09,13,05,43,0.00
2006,09,13,05,44,0.00
2006,09,13,05,45,0.00
2006,09,13,05,46,0.00
2006,09,13,05,47,0.00
2006,09,13,05,48,0.00
2006,09,13,05,49,0.00
2006,09,13,05,50,0.00
2006,09,13,05,51,0.00
2006,09,13,05,52,0.00
2006,09,13,05,53,0.00
2006,09,13,05,54,0.00
2006,09,13,05,55,0.00
2006,09,13,05,56,0.00
2006,09,13,05,57,0.00
2006,09,13,05,58,0.00
2006,09,13,05,59,0.00
2006,09,13,06,00,0.00
2006,09,13,06,01,0.00
2006,09,13,06,02,0.00
2006,09,13,06,03,0.00
2006,09,13,06,04,0.00
2006,09,13,06,05,0.00
2006,09,13,06,06,0.00
2006,09,13,06,07,0.00
2006,09,13,06,08,0.00
2006,09,13,06,09,0.00
2006,09,13,06,10,0.00
2006,09,13,06,11,0.00
2006,09,13,06,12,0.00
2006,09,13,06,13,0.00
2006,09,13,06,14,0.00
2006,09,13,06,15,0.00
2006,09,13,06,16,0.00
2006,09,13,06,17,0.00
2006,09,13,06,18,0.00
2006,09,13,06,19,0.00
2006,09,13,06,20,0.00
2006,09,13,06,21,0.00
2006,09,13,06,22,0.00
2006,09,13,06,23,0.00
2006,09,13,06,24,0.00
2006,09,13,06,25,0.00
2006,09,13,06,26,0.00
2006,09,13,06,27,0.00
2006,09,13,06,28,0.00
2006,09,13,06,29,0.00
2006,09,13,06,30,0.00
2006,09,13,06,31,0.00
2006,09,13,06,32,0.00
2006,09,13,06,33,0.00
2006,09,13,06,34,0.00
2006,09,13,06,35,0.00
2006,09,13,06,36,0.00
2006,09,13,06,37,0.00
2006,09,13,06,38,0.00
2006,09,13,06,39,0.00
2006,09,13,06,40,0.00
2006,09,13,06,41,0.00
2006,09,13,06,42,0.00
2006,09,13,06,43,0.00
2006,09,13,06,44,0.00
2006,09,13,06,45,0.00
2006,09,13,06,46,0.00
2006,09,13,06,47,0.00
2006,09,13,06,48,0.00
2006,09,13,06,49,0.00
2006,09,13,06,50,0.00
2006,09,13,06,51,0.00
2006,09,13,06,52,0.00
2006,09,13,06,53,0.00
2006,09,13,06,54,0.00
2006,09,13,06,55,0.00
2006,09,13,06,56,0.00
2006,09,13,06,57,0.00
2006,09,13,06,58,0.00
2006,09,13,06,59,0.00
2006,09,13,07,00,1.20
2006,09,13,07,01,5.00
2006,09,13,07,02,5.00
2006,09,13,07,03,5.00
2006,09,13,07,04,5.00
2006,09,13,07,05,6.90
2006,09,13,07,06,7.00
2006,09,13,07,07,7.00
2006,09,13,07,08,7.00
2006,09,13,07,09,7.00
2006,09,13,07,10,7.00
2006,09,13,07,11,8.90
2006,09,13,07,12,9.00
2006,09,13,07,13,9.80
2006,09,13,07,14,11.00
2006,09,13,07,15,11.00
2006,09,13,07,16,11.00
2006,09,13,07,17,11.00
2006,09,13,07,18,11.00
2006,09,13,07,19,11.00
2006,09,13,07,20,11.00
2006,09,13,07,21,11.00
2006,09,13,07,22,11.00
2006,09,13,07,23,11.00
2006,09,13,07,24,12.10
2006,09,13,07,25,14.00
2006,09,13,07,26,14.00
2006,09,13,07,27,15.50
2006,09,13,07,28,16.10
2006,09,13,07,29,18.00
2006,09,13,07,30,18.00
2006,09,13,07,31,18.00
2006,09,13,07,32,18.60
2006,09,13,07,33,19.00
2006,09,13,07,34,20.80
2006,09,13,07,35,21.00
2006,09,13,07,36,21.00
2006,09,13,07,37,22.00
2006,09,13,07,38,24.30
2006,09,13,07,39,25.00
2006,09,13,07,40,25.10
2006,09,13,07,41,26.00
2006,09,13,07,42,26.00
2006,09,13,07,43,27.00
2006,09,13,07,44,28.00
2006,09,13,07,45,28.00
2006,09,13,07,46,29.90
2006,09,13,07,47,30.00
2006,09,13,07,48,30.00
2006,09,13,07,49,30.00
2006,09,13,07,50,30.00
2006,09,13,07,51,30.00
2006,09,13,07,52,30.00
2006,09,13,07,53,30.00
2006,09,13,07,54,30.00
2006,09,13,07,55,30.00
2006,09,13,07,56,30.00
2006,09,13,07,57,30.00
2006,09,13,07,58,30.00
2006,09,13,07,59,30.00
2006,09,13,08,00,30.00
2006,09,13,08,01,31.20
2006,09,13,08,02,32.00
2006,09,13,08,03,32.90
2006,09,13,08,04,35.00
2006,09,13,08,05,35.00
2006,09,13,08,06,35.00
2006,09,13,08,07,36.30
2006,09,13,08,08,37.00
2006,09,13,08,09,37.00
2006,09,13,08,10,37.00
2006,09,13,08,11,37.00
2006,09,13,08,12,37.00
2006,09,13,08,13,38.40
2006,09,13,08,14,39.00
2006,09,13,08,15,41.70
2006,09,13,08,16,42.40
2006,09,13,08,17,44.00
2006,09,13,08,18,44.00
2006,09,13,08,19,45.30
2006,09,13,08,20,46.80
2006,09,13,08,21,49.30
2006,09,13,08,22,53.20
2006,09,13,08,23,55.50
2006,09,13,08,24,60.10
2006,09,13,08,25,62.60
2006,09,13,08,26,66.30
2006,09,13,08,27,68.90
2006,09,13,08,28,69.30
2006,09,13,08,29,70.80
2006,09,13,08,30,73.10
2006,09,13,08,31,75.40
2006,09,13,08,32,76.80
2006,09,13,08,33,79.30
2006,09,13,08,34,81.00
2006,09,13,08,35,81.80
2006,09,13,08,36,83.60
2006,09,13,08,37,85.50
2006,09,13,08,38,89.20
2006,09,13,08,39,91.00
2006,09,13,08,40,91.60
2006,09,13,08,41,93.00
2006,09,13,08,42,93.00
2006,09,13,08,43,91.50
2006,09,13,08,44,90.10
2006,09,13,08,45,84.00
2006,09,13,08,46,84.00
2006,09,13,08,47,80.40
2006,09,13,08,48,76.00
2006,09,13,08,49,76.00
2006,09,13,08,50,76.00
2006,09,13,08,51,75.60
2006,09,13,08,52,74.00
2006,09,13,08,53,73.00
2006,09,13,08,54,73.20
2006,09,13,08,55,75.50
2006,09,13,08,56,76.00
2006,09,13,08,57,76.20
2006,09,13,08,58,77.00
2006,09,13,08,59,77.00
2006,09,13,09,00,76.30
2006,09,13,09,01,76.00
2006,09,13,09,02,76.30
2006,09,13,09,03,79.00
2006,09,13,09,04,80.90
2006,09,13,09,05,85.00
2006,09,13,09,06,88.70
2006,09,13,09,07,92.40
2006,09,13,09,08,95.30
2006,09,13,09,09,98.50
2006,09,13,09,10,100.80
2006,09,13,09,11,102.00
2006,09,13,09,12,106.80
2006,09,13,09,13,107.30
2006,09,13,09,14,109.00
2006,09,13,09,15,109.50
2006,09,13,09,16,111.00
2006,09,13,09,17,111.00
2006,09,13,09,18,111.00
2006,09,13,09,19,112.70
2006,09,13,09,20,111.00
2006,09,13,09,21,111.00
2006,09,13,09,22,111.00
2006,09,13,09,23,113.80
2006,09,13,09,24,117.50
2006,09,13,09,25,118.00
2006,09,13,09,26,120.60
2006,09,13,09,27,123.00
2006,09,13,09,28,123.00
2006,09,13,09,29,123.00
2006,09,13,09,30,123.00
2006,09,13,09,31,127.70
2006,09,13,09,32,130.00
2006,09,13,09,33,131.40
2006,09,13,09,34,139.20
2006,09,13,09,35,149.60
2006,09,13,09,36,156.90
2006,09,13,09,37,164.40
2006,09,13,09,38,162.00
2006,09,13,09,39,149.70
2006,09,13,09,40,156.70
2006,09,13,09,41,163.00
2006,09,13,09,42,171.60
2006,09,13,09,43,164.90
2006,09,13,09,44,154.50
2006,09,13,09,45,150.30
2006,09,13,09,46,138.70
2006,09,13,09,47,132.00
2006,09,13,09,48,127.90
2006,09,13,09,49,118.40
2006,09,13,09,50,118.00
2006,09,13,09,51,118.00
2006,09,13,09,52,119.60
2006,09,13,09,53,121.00
2006,09,13,09,54,128.70
2006,09,13,09,55,130.50
2006,09,13,09,56,134.00
2006,09,13,09,57,133.20
2006,09,13,09,58,132.00
2006,09,13,09,59,132.00
2006,09,13,10,00,137.70
2006,09,13,10,01,139.00
2006,09,13,10,02,142.30
2006,09,13,10,03,152.70
2006,09,13,10,04,155.60
2006,09,13,10,05,155.30
2006,09,13,10,06,149.80
2006,09,13,10,07,139.70
2006,09,13,10,08,132.70
2006,09,13,10,09,128.60
2006,09,13,10,10,127.00
2006,09,13,10,11,125.50
2006,09,13,10,12,123.10
2006,09,13,10,13,119.30
2006,09,13,10,14,115.30
2006,09,13,10,15,114.00
2006,09,13,10,16,114.00
2006,09,13,10,17,121.00
2006,09,13,10,18,126.90
2006,09,13,10,19,132.00
2006,09,13,10,20,133.70
2006,09,13,10,21,139.40
2006,09,13,10,22,147.60
2006,09,13,10,23,158.00
2006,09,13,10,24,160.20
2006,09,13,10,25,163.00
2006,09,13,10,26,164.60
2006,09,13,10,27,167.00
2006,09,13,10,28,167.00
2006,09,13,10,29,165.30
2006,09,13,10,30,168.80
2006,09,13,10,31,171.30
2006,09,13,10,32,178.40
2006,09,13,10,33,181.20
2006,09,13,10,34,180.30
2006,09,13,10,35,178.10
2006,09,13,10,36,173.70
2006,09,13,10,37,170.50
2006,09,13,10,38,169.80
2006,09,13,10,39,168.60
2006,09,13,10,40,167.00
2006,09,13,10,41,165.30
2006,09,13,10,42,163.00
2006,09,13,10,43,163.00
2006,09,13,10,44,164.60
2006,09,13,10,45,171.00
2006,09,13,10,46,182.00
2006,09,13,10,47,197.20
2006,09,13,10,48,206.00
2006,09,13,10,49,207.50
2006,09,13,10,50,211.90
2006,09,13,10,51,216.20
2006,09,13,10,52,219.50
2006,09,13,10,53,228.10
2006,09,13,10,54,230.20
2006,09,13,10,55,236.00
2006,09,13,10,56,237.40
2006,09,13,10,57,239.00
2006,09,13,10,58,240.60
2006,09,13,10,59,241.00
2006,09,13,11,00,242.10
2006,09,13,11,01,246.00
2006,09,13,11,02,255.50
2006,09,13,11,03,257.50
2006,09,13,11,04,250.70
2006,09,13,11,05,250.00
2006,09,13,11,06,250.00
2006,09,13,11,07,250.00
2006,09,13,11,08,268.00
2006,09,13,11,09,268.00
2006,09,13,11,10,248.40
2006,09,13,11,11,259.00
2006,09,13,11,12,246.00
2006,09,13,11,13,243.40
2006,09,13,11,14,239.00
2006,09,13,11,15,253.30
2006,09,13,11,16,269.90
2006,09,13,11,17,309.30
2006,09,13,11,18,261.00
2006,09,13,11,19,241.00
2006,09,13,11,20,238.80
2006,09,13,11,21,241.00
2006,09,13,11,22,239.30
2006,09,13,11,23,237.30
2006,09,13,11,24,245.40
2006,09,13,11,25,240.70
2006,09,13,11,26,236.00
2006,09,13,11,27,234.50
2006,09,13,11,28,234.00
2006,09,13,11,29,233.40
2006,09,13,11,30,230.60
2006,09,13,11,31,232.90
2006,09,13,11,32,232.90
2006,09,13,11,33,229.70
2006,09,13,11,34,229.90
2006,09,13,11,35,236.00
2006,09,13,11,36,238.20
2006,09,13,11,37,248.50
2006,09,13,11,38,252.50
2006,09,13,11,39,273.90
2006,09,13,11,40,253.70
2006,09,13,11,41,253.10
2006,09,13,11,42,262.00
2006,09,13,11,43,262.00
2006,09,13,11,44,262.00
2006,09,13,11,45,262.00
2006,09,13,11,46,241.10
2006,09,13,11,47,239.00
2006,09,13,11,48,239.00
2006,09,13,11,49,252.00
2006,09,13,11,50,259.10
2006,09,13,11,51,255.30
2006,09,13,11,52,249.40
2006,09,13,11,53,258.20
2006,09,13,11,54,257.00
2006,09,13,11,55,271.90
2006,09,13,11,56,278.00
2006,09,13,11,57,278.90
2006,09,13,11,58,279.00
2006,09,13,11,59,280.40
2006,09,13,12,00,286.20
2006,09,13,12,01,292.10
2006,09,13,12,02,296.40
2006,09,13,12,03,295.30
2006,09,13,12,04,296.00
2006,09,13,12,05,302.00
2006,09,13,12,06,306.80
2006,09,13,12,07,303.40
2006,09,13,12,08,289.50
2006,09,13,12,09,297.90
2006,09,13,12,10,299.00
2006,09,13,12,11,299.00
2006,09,13,12,12,299.00
2006,09,13,12,13,286.20
2006,09,13,12,14,294.40
2006,09,13,12,15,289.00
2006,09,13,12,16,328.70
2006,09,13,12,17,324.60
2006,09,13,12,18,346.50
2006,09,13,12,19,356.60
2006,09,13,12,20,299.80
2006,09,13,12,21,272.40
2006,09,13,12,22,276.20
2006,09,13,12,23,302.00
2006,09,13,12,24,284.00
2006,09,13,12,25,263.40
2006,09,13,12,26,256.00
2006,09,13,12,27,270.30
2006,09,13,12,28,272.00
2006,09,13,12,29,271.00
2006,09,13,12,30,269.00
2006,09,13,12,31,269.00
2006,09,13,12,32,269.00
2006,09,13,12,33,222.20
2006,09,13,12,34,220.00
2006,09,13,12,35,307.40
2006,09,13,12,36,424.00
2006,09,13,12,37,424.00
2006,09,13,12,38,424.00
2006,09,13,12,39,428.80
2006,09,13,12,40,437.70
2006,09,13,12,41,461.00
2006,09,13,12,42,461.00
2006,09,13,12,43,461.00
2006,09,13,12,44,429.30
2006,09,13,12,45,363.90
2006,09,13,12,46,343.00
2006,09,13,12,47,343.00
2006,09,13,12,48,343.00
2006,09,13,12,49,343.00
2006,09,13,12,50,343.00
2006,09,13,12,51,407.20
2006,09,13,12,52,680.00
2006,09,13,12,53,680.00
2006,09,13,12,54,680.00
2006,09,13,12,55,680.00
2006,09,13,12,56,685.50
2006,09,13,12,57,801.60
2006,09,13,12,58,801.70
2006,09,13,12,59,810.20
2006,09,13,13,00,822.50
2006,09,13,13,01,838.40
2006,09,13,13,02,865.90
2006,09,13,13,03,876.00
2006,09,13,13,04,922.50
2006,09,13,13,05,942.00
2006,09,13,13,06,942.00
2006,09,13,13,07,591.50
2006,09,13,13,08,524.10
2006,09,13,13,09,526.00
2006,09,13,13,10,526.00
2006,09,13,13,11,790.00
2006,09,13,13,12,1030.00
2006,09,13,13,13,998.10
2006,09,13,13,14,945.40
2006,09,13,13,15,489.00
2006,09,13,13,16,489.00
2006,09,13,13,17,489.00
2006,09,13,13,18,489.00
2006,09,13,13,19,489.00
2006,09,13,13,20,459.10
2006,09,13,13,21,249.50
2006,09,13,13,22,279.50
2006,09,13,13,23,325.00
2006,09,13,13,24,716.30
2006,09,13,13,25,863.00
2006,09,13,13,26,858.60
2006,09,13,13,27,828.10
2006,09,13,13,28,818.00
2006,09,13,13,29,810.00
2006,09,13,13,30,800.00
2006,09,13,13,31,791.90
2006,09,13,13,32,788.30
2006,09,13,13,33,772.00
2006,09,13,13,34,765.80
2006,09,13,13,35,760.20
2006,09,13,13,36,758.80
2006,09,13,13,37,757.80
2006,09,13,13,38,737.10
2006,09,13,13,39,657.00
2006,09,13,13,40,705.50
2006,09,13,13,41,758.40
2006,09,13,13,42,768.00
2006,09,13,13,43,778.90
2006,09,13,13,44,775.90
2006,09,13,13,45,779.00
2006,09,13,13,46,779.00
2006,09,13,13,47,779.70
2006,09,13,13,48,748.70
2006,09,13,13,49,740.00
2006,09,13,13,50,747.10
2006,09,13,13,51,766.90
2006,09,13,13,52,761.00
2006,09,13,13,53,753.20
2006,09,13,13,54,751.40
2006,09,13,13,55,752.00
2006,09,13,13,56,750.80
2006,09,13,13,57,745.10
2006,09,13,13,58,737.30
2006,09,13,13,59,733.00
2006,09,13,14,00,731.40
2006,09,13,14,01,734.80
2006,09,13,14,02,735.00
2006,09,13,14,03,736.20
2006,09,13,14,04,741.10
2006,09,13,14,05,750.80
2006,09,13,14,06,713.20
2006,09,13,14,07,705.00
2006,09,13,14,08,705.00
2006,09,13,14,09,705.00
2006,09,13,14,10,705.00
2006,09,13,14,11,705.00
2006,09,13,14,12,705.00
2006,09,13,14,13,648.00
2006,09,13,14,14,321.80
2006,09,13,14,15,315.00
2006,09,13,14,16,365.80
2006,09,13,14,17,401.00
2006,09,13,14,18,353.20
2006,09,13,14,19,346.40
2006,09,13,14,20,352.70
2006,09,13,14,21,354.40
2006,09,13,14,22,336.30
2006,09,13,14,23,330.00
2006,09,13,14,24,325.80
2006,09,13,14,25,330.10
2006,09,13,14,26,334.00
2006,09,13,14,27,334.00
2006,09,13,14,28,348.00
2006,09,13,14,29,364.40
2006,09,13,14,30,367.00
2006,09,13,14,31,367.00
2006,09,13,14,32,369.70
2006,09,13,14,33,373.50
2006,09,13,14,34,373.00
2006,09,13,14,35,373.00
2006,09,13,14,36,373.00
2006,09,13,14,37,373.00
2006,09,13,14,38,373.00
2006,09,13,14,39,373.00
2006,09,13,14,40,347.30
2006,09,13,14,41,314.10
2006,09,13,14,42,294.00
2006,09,13,14,43,291.90
2006,09,13,14,44,287.40
2006,09,13,14,45,288.00
2006,09,13,14,46,288.00
2006,09,13,14,47,288.00
2006,09,13,14,48,373.00
2006,09,13,14,49,493.00
2006,09,13,14,50,811.70
2006,09,13,14,51,784.00
2006,09,13,14,52,784.00
2006,09,13,14,53,784.00
2006,09,13,14,54,784.00
2006,09,13,14,55,784.00
2006,09,13,14,56,784.00
2006,09,13,14,57,557.10
2006,09,13,14,58,387.00
2006,09,13,14,59,714.30
2006,09,13,15,00,673.60
2006,09,13,15,01,369.80
2006,09,13,15,02,348.00
2006,09,13,15,03,348.00
2006,09,13,15,04,340.20
2006,09,13,15,05,337.60
2006,09,13,15,06,330.00
2006,09,13,15,07,325.00
2006,09,13,15,08,308.50
2006,09,13,15,09,295.50
2006,09,13,15,10,292.00
2006,09,13,15,11,268.50
2006,09,13,15,12,249.80
2006,09,13,15,13,238.00
2006,09,13,15,14,236.00
2006,09,13,15,15,239.30
2006,09,13,15,16,241.00
2006,09,13,15,17,240.80
2006,09,13,15,18,238.50
2006,09,13,15,19,238.60
2006,09,13,15,20,241.00
2006,09,13,15,21,241.00
2006,09,13,15,22,241.00
2006,09,13,15,23,263.60
2006,09,13,15,24,260.10
2006,09,13,15,25,251.60
2006,09,13,15,26,246.00
2006,09,13,15,27,212.50
2006,09,13,15,28,189.20
2006,09,13,15,29,178.90
2006,09,13,15,30,176.90
2006,09,13,15,31,173.10
2006,09,13,15,32,172.00
2006,09,13,15,33,166.80
2006,09,13,15,34,160.30
2006,09,13,15,35,156.00
2006,09,13,15,36,154.50
2006,09,13,15,37,152.00
2006,09,13,15,38,153.00
2006,09,13,15,39,153.00
2006,09,13,15,40,155.70
2006,09,13,15,41,156.40
2006,09,13,15,42,157.40
2006,09,13,15,43,156.00
2006,09,13,15,44,155.40
2006,09,13,15,45,151.90
2006,09,13,15,46,146.20
2006,09,13,15,47,139.80
2006,09,13,15,48,133.10
2006,09,13,15,49,128.50
2006,09,13,15,50,125.70
2006,09,13,15,51,125.00
2006,09,13,15,52,125.10
2006,09,13,15,53,127.00
2006,09,13,15,54,130.20
2006,09,13,15,55,138.70
2006,09,13,15,56,145.90
2006,09,13,15,57,150.30
2006,09,13,15,58,156.30
2006,09,13,15,59,164.70
2006,09,13,16,00,176.00
2006,09,13,16,01,187.70
2006,09,13,16,02,196.60
2006,09,13,16,03,207.10
2006,09,13,16,04,220.00
2006,09,13,16,05,220.00
2006,09,13,16,06,220.00
2006,09,13,16,07,220.00
2006,09,13,16,08,271.00
2006,09,13,16,09,285.60
2006,09,13,16,10,288.80
2006,09,13,16,11,316.40
2006,09,13,16,12,330.00
2006,09,13,16,13,340.10
2006,09,13,16,14,336.30
2006,09,13,16,15,320.30
2006,09,13,16,16,303.50
2006,09,13,16,17,287.50
2006,09,13,16,18,270.40
2006,09,13,16,19,262.00
2006,09,13,16,20,243.50
2006,09,13,16,21,227.40
2006,09,13,16,22,216.00
2006,09,13,16,23,210.00
2006,09,13,16,24,194.60
2006,09,13,16,25,189.60
2006,09,13,16,26,180.70
2006,09,13,16,27,167.60
2006,09,13,16,28,154.70
2006,09,13,16,29,148.00
2006,09,13,16,30,147.00
2006,09,13,16,31,148.70
2006,09,13,16,32,153.70
2006,09,13,16,33,156.20
2006,09,13,16,34,168.50
2006,09,13,16,35,175.80
2006,09,13,16,36,179.00
2006,09,13,16,37,179.00
2006,09,13,16,38,172.50
2006,09,13,16,39,166.30
2006,09,13,16,40,161.00
2006,09,13,16,41,156.80
2006,09,13,16,42,152.70
2006,09,13,16,43,147.60
2006,09,13,16,44,142.80
2006,09,13,16,45,136.60
2006,09,13,16,46,132.90
2006,09,13,16,47,128.70
2006,09,13,16,48,121.90
2006,09,13,16,49,111.70
2006,09,13,16,50,109.00
2006,09,13,16,51,96.20
2006,09,13,16,52,90.10
2006,09,13,16,53,88.00
2006,09,13,16,54,85.70
2006,09,13,16,55,81.80
2006,09,13,16,56,76.70
2006,09,13,16,57,70.00
2006,09,13,16,58,66.80
2006,09,13,16,59,57.30
2006,09,13,17,00,53.40
2006,09,13,17,01,53.00
2006,09,13,17,02,46.70
2006,09,13,17,03,45.00
2006,09,13,17,04,40.70
2006,09,13,17,05,43.90
2006,09,13,17,06,46.00
2006,09,13,17,07,54.20
2006,09,13,17,08,63.00
2006,09,13,17,09,71.30
2006,09,13,17,10,79.40
2006,09,13,17,11,87.70
2006,09,13,17,12,95.10
2006,09,13,17,13,99.40
2006,09,13,17,14,99.80
2006,09,13,17,15,97.30
2006,09,13,17,16,93.50
2006,09,13,17,17,90.50
2006,09,13,17,18,90.00